FLX376G MPTO-MTPP

Flight info

Callsign FLX376G
Flight time 1h 41m
Altitude 37000
Route EGET3B EGETA AGUJA UM597 LIDOL UG444 APLED MESLI MESL1B
Aircraft B77W/H-SDE1E2E3FGHIJ2J3J4J5M1RWXY/LB1D1

Departure

Time 2026-05-08 19:41
Airport Tocumen International Airport (MPTO)

Arrival

Time 2026-05-08 21:23
Airport Toussaint Louverture International Airport (MTPP)
Time Latitude Longitude Altitude Speed Heading
2026-05-08 19:25 9.06732 -79.38560 66 ft 0 kts 300°
2026-05-08 19:32 9.06731 -79.38558 66 ft 1 kts 300°
2026-05-08 19:32 9.06724 -79.38545 65 ft 2 kts 300°
2026-05-08 19:32 9.06716 -79.38532 65 ft 2 kts 300°
2026-05-08 19:32 9.06709 -79.38519 65 ft 2 kts 300°
2026-05-08 19:33 9.06701 -79.38506 65 ft 2 kts 300°
2026-05-08 19:33 9.06694 -79.38493 65 ft 2 kts 300°
2026-05-08 19:33 9.06685 -79.38480 64 ft 2 kts 324°
2026-05-08 19:33 9.06672 -79.38474 64 ft 2 kts 354°
2026-05-08 19:34 9.06657 -79.38476 64 ft 2 kts 20°
2026-05-08 19:34 9.06651 -79.38477 64 ft 0 kts 31°
2026-05-08 19:34 9.06673 -79.38467 64 ft 6 kts 28°
2026-05-08 19:34 9.06716 -79.38441 64 ft 5 kts 31°
2026-05-08 19:35 9.06738 -79.38428 64 ft 4 kts 27°
2026-05-08 19:35 9.06761 -79.38416 65 ft 1 kts 26°
2026-05-08 19:35 9.06762 -79.38416 65 ft 0 kts 26°
2026-05-08 19:38 9.06775 -79.38409 65 ft 5 kts 27°
2026-05-08 19:39 9.06826 -79.38390 65 ft 9 kts 355°
2026-05-08 19:39 9.06883 -79.38437 66 ft 12 kts 304°
2026-05-08 19:39 9.06957 -79.38472 68 ft 13 kts 25°
2026-05-08 19:39 9.07058 -79.38416 69 ft 18 kts 30°
2026-05-08 19:40 9.07165 -79.38416 70 ft 17 kts 297°
2026-05-08 19:40 9.07230 -79.38538 72 ft 21 kts 297°
2026-05-08 19:40 9.07273 -79.38689 74 ft 23 kts 289°
2026-05-08 19:40 9.07378 -79.38676 74 ft 34 kts 31°
2026-05-08 19:41 9.07817 -79.38410 80 ft 111 kts 30°
2026-05-08 19:41 9.08679 -79.37890 146 ft 171 kts 29°
2026-05-08 19:41 9.09751 -79.37218 672 ft 189 kts 34°
2026-05-08 19:41 9.10796 -79.36387 1649 ft 189 kts 38°
2026-05-08 19:42 9.11777 -79.35575 2395 ft 190 kts 37°
2026-05-08 19:42 9.12883 -79.34696 2774 ft 212 kts 37°
2026-05-08 19:42 9.14105 -79.33730 3221 ft 233 kts 37°
2026-05-08 19:42 9.15444 -79.32671 3710 ft 253 kts 37°
2026-05-08 19:43 9.16835 -79.31570 4544 ft 258 kts 38°
2026-05-08 19:43 9.18243 -79.30454 5437 ft 261 kts 38°
2026-05-08 19:43 9.19679 -79.29317 6301 ft 265 kts 39°
2026-05-08 19:43 9.21112 -79.28182 7154 ft 267 kts 39°
2026-05-08 19:44 9.22585 -79.27016 8058 ft 269 kts 39°
2026-05-08 19:44 9.24046 -79.25859 8896 ft 272 kts 39°
2026-05-08 19:44 9.25555 -79.24663 9683 ft 276 kts 39°
2026-05-08 19:44 9.27072 -79.23461 10394 ft 283 kts 39°
2026-05-08 19:45 9.28667 -79.22197 10804 ft 302 kts 39°
2026-05-08 19:45 9.30397 -79.20825 11200 ft 322 kts 39°
2026-05-08 19:45 9.32207 -79.19391 11594 ft 341 kts 39°
2026-05-08 19:45 9.34128 -79.17868 12006 ft 360 kts 39°
2026-05-08 19:46 9.36165 -79.16253 12531 ft 375 kts 39°
2026-05-08 19:46 9.38236 -79.14612 13228 ft 384 kts 39°
2026-05-08 19:46 9.42444 -79.11276 14805 ft 396 kts 39°
2026-05-08 19:47 9.44623 -79.09547 15564 ft 403 kts 39°
2026-05-08 19:47 9.46836 -79.07751 16303 ft 410 kts 43°
2026-05-08 19:47 9.48850 -79.05703 17008 ft 416 kts 47°
2026-05-08 19:47 9.50831 -79.03548 17752 ft 422 kts 48°
2026-05-08 19:48 9.52829 -79.01368 18576 ft 424 kts 48°
2026-05-08 19:48 9.54849 -78.99164 19361 ft 427 kts 48°
2026-05-08 19:48 9.56865 -78.96965 20111 ft 431 kts 48°
2026-05-08 19:48 9.58919 -78.94725 20825 ft 434 kts 48°
2026-05-08 19:49 9.60983 -78.92474 21503 ft 438 kts 48°
2026-05-08 19:49 9.63059 -78.90211 22216 ft 441 kts 48°
2026-05-08 19:49 9.65132 -78.87950 22889 ft 444 kts 48°
2026-05-08 19:49 9.67252 -78.85637 23457 ft 451 kts 48°
2026-05-08 19:50 9.69415 -78.83278 24036 ft 456 kts 48°
2026-05-08 19:50 9.71565 -78.80932 24606 ft 462 kts 48°
2026-05-08 19:50 9.73755 -78.78542 25187 ft 467 kts 48°
2026-05-08 19:50 9.75980 -78.76114 25796 ft 471 kts 48°
2026-05-08 19:51 9.78231 -78.73656 26386 ft 476 kts 48°
2026-05-08 19:51 9.80502 -78.71178 26953 ft 481 kts 48°
2026-05-08 19:51 9.82769 -78.68702 27506 ft 486 kts 47°
2026-05-08 19:51 9.85079 -78.66180 28091 ft 490 kts 47°
2026-05-08 19:52 9.87424 -78.63618 28627 ft 496 kts 47°
2026-05-08 19:52 9.89777 -78.61046 29172 ft 500 kts 47°
2026-05-08 19:52 9.92149 -78.58453 29871 ft 501 kts 47°
2026-05-08 19:52 9.94485 -78.55901 30741 ft 497 kts 47°
2026-05-08 19:53 9.96843 -78.53322 31633 ft 493 kts 47°
2026-05-08 19:53 9.99170 -78.50776 32404 ft 491 kts 47°
2026-05-08 19:53 10.01470 -78.48261 33100 ft 491 kts 47°
2026-05-08 19:53 10.03781 -78.45732 33821 ft 490 kts 47°
2026-05-08 19:54 10.06088 -78.43207 34590 ft 489 kts 47°
2026-05-08 19:54 10.08410 -78.40665 35421 ft 485 kts 47°
2026-05-08 19:54 10.10697 -78.38161 36125 ft 483 kts 47°
2026-05-08 19:54 10.12966 -78.35676 36663 ft 483 kts 47°
2026-05-08 19:55 10.15272 -78.33150 36817 ft 487 kts 47°
2026-05-08 19:55 10.17555 -78.30647 36823 ft 485 kts 47°
2026-05-08 19:55 10.22153 -78.25608 36820 ft 484 kts 47°
2026-05-08 19:56 10.26698 -78.20624 36826 ft 484 kts 47°
2026-05-08 19:56 10.31275 -78.15602 36830 ft 484 kts 47°
2026-05-08 19:57 10.35837 -78.10596 36830 ft 483 kts 47°
2026-05-08 19:57 10.40426 -78.05557 36829 ft 484 kts 47°
2026-05-08 19:58 10.44989 -78.00543 36827 ft 483 kts 47°
2026-05-08 19:58 10.49548 -77.95533 36825 ft 483 kts 47°
2026-05-08 19:59 10.54120 -77.90505 36826 ft 484 kts 47°
2026-05-08 19:59 10.58676 -77.85492 36826 ft 484 kts 47°
2026-05-08 20:00 10.63247 -77.80462 36825 ft 483 kts 47°
2026-05-08 20:00 10.67833 -77.75412 36826 ft 491 kts 47°
2026-05-08 20:01 10.72516 -77.70252 36826 ft 504 kts 47°
2026-05-08 20:01 10.77283 -77.64998 36826 ft 507 kts 47°
2026-05-08 20:02 10.82066 -77.59722 36822 ft 505 kts 47°
2026-05-08 20:02 10.86838 -77.54457 36819 ft 507 kts 47°
2026-05-08 20:03 10.91629 -77.49168 36817 ft 508 kts 47°
2026-05-08 20:03 10.96416 -77.43882 36816 ft 511 kts 47°
2026-05-08 20:04 11.01278 -77.38581 36816 ft 513 kts 46°
2026-05-08 20:04 11.06249 -77.33298 36815 ft 512 kts 47°
2026-05-08 20:05 11.11179 -77.28051 36817 ft 512 kts 47°
2026-05-08 20:05 11.16068 -77.22839 36816 ft 512 kts 47°
2026-05-08 20:06 11.21002 -77.17574 36816 ft 512 kts 47°
2026-05-08 20:06 11.25925 -77.12317 36809 ft 513 kts 47°
2026-05-08 20:07 11.30851 -77.07054 36815 ft 511 kts 47°
2026-05-08 20:07 11.35725 -77.01842 36821 ft 511 kts 47°
2026-05-08 20:08 11.40727 -76.96635 36818 ft 511 kts 45°
2026-05-08 20:08 11.45797 -76.91570 36822 ft 510 kts 45°
2026-05-08 20:09 11.50857 -76.86502 36821 ft 511 kts 45°
2026-05-08 20:09 11.55917 -76.81422 36823 ft 509 kts 45°
2026-05-08 20:10 11.60964 -76.76350 36828 ft 509 kts 45°
2026-05-08 20:10 11.66019 -76.71263 36821 ft 511 kts 45°
2026-05-08 20:11 11.71052 -76.66195 36826 ft 510 kts 45°
2026-05-08 20:11 11.76071 -76.61137 36831 ft 509 kts 45°
2026-05-08 20:12 11.81115 -76.56050 36827 ft 510 kts 45°
2026-05-08 20:12 11.86192 -76.50928 36822 ft 511 kts 45°
2026-05-08 20:13 11.91233 -76.45838 36825 ft 510 kts 45°
2026-05-08 20:13 11.96257 -76.40764 36824 ft 511 kts 45°
2026-05-08 20:14 12.01306 -76.35660 36829 ft 510 kts 45°
2026-05-08 20:14 12.06352 -76.30557 36831 ft 510 kts 45°
2026-05-08 20:15 12.11422 -76.25427 36829 ft 511 kts 45°
2026-05-08 20:15 12.16469 -76.20318 36831 ft 512 kts 45°
2026-05-08 20:16 12.21532 -76.15189 36832 ft 511 kts 45°
2026-05-08 20:16 12.26580 -76.10072 36833 ft 511 kts 45°
2026-05-08 20:17 12.31597 -76.04984 36836 ft 510 kts 45°
2026-05-08 20:17 12.36635 -75.99873 36834 ft 510 kts 45°
2026-05-08 20:18 12.41693 -75.94740 36836 ft 510 kts 45°
2026-05-08 20:18 12.46710 -75.89643 36835 ft 509 kts 45°
2026-05-08 20:19 12.51706 -75.84566 36838 ft 506 kts 45°
2026-05-08 20:19 12.56701 -75.79486 36836 ft 506 kts 45°
2026-05-08 20:20 12.61692 -75.74408 36839 ft 506 kts 45°
2026-05-08 20:20 12.66671 -75.69339 36845 ft 505 kts 45°
2026-05-08 20:21 12.71679 -75.64237 36848 ft 505 kts 45°
2026-05-08 20:21 12.76661 -75.59160 36844 ft 505 kts 45°
2026-05-08 20:22 12.81654 -75.54068 36851 ft 506 kts 45°
2026-05-08 20:22 12.86632 -75.48988 36853 ft 506 kts 45°
2026-05-08 20:23 12.91624 -75.43890 36851 ft 505 kts 45°
2026-05-08 20:23 12.96584 -75.38818 36854 ft 505 kts 45°
2026-05-08 20:24 13.01549 -75.33728 36846 ft 506 kts 45°
2026-05-08 20:24 13.06521 -75.28628 36846 ft 505 kts 45°
2026-05-08 20:25 13.11486 -75.23533 36851 ft 505 kts 45°
2026-05-08 20:25 13.16431 -75.18455 36852 ft 505 kts 45°
2026-05-08 20:26 13.21387 -75.13367 36851 ft 505 kts 45°
2026-05-08 20:26 13.26373 -75.08252 36854 ft 505 kts 45°
2026-05-08 20:27 13.31339 -75.03155 36855 ft 505 kts 45°
2026-05-08 20:27 13.36299 -74.98060 36859 ft 505 kts 45°
2026-05-08 20:28 13.41253 -74.92969 36857 ft 505 kts 45°
2026-05-08 20:28 13.46215 -74.87865 36859 ft 505 kts 45°
2026-05-08 20:29 13.51184 -74.82752 36857 ft 505 kts 45°
2026-05-08 20:29 13.56146 -74.77642 36859 ft 506 kts 45°
2026-05-08 20:30 13.61111 -74.72527 36859 ft 505 kts 45°
2026-05-08 20:30 13.66071 -74.67413 36860 ft 505 kts 45°
2026-05-08 20:31 13.71045 -74.62280 36860 ft 506 kts 45°
2026-05-08 20:31 13.76023 -74.57141 36862 ft 506 kts 44°
2026-05-08 20:32 13.80973 -74.52027 36862 ft 506 kts 44°
2026-05-08 20:32 13.85938 -74.46896 36865 ft 506 kts 45°
2026-05-08 20:33 13.90889 -74.41775 36864 ft 506 kts 45°
2026-05-08 20:33 13.95872 -74.36617 36868 ft 506 kts 45°
2026-05-08 20:34 14.00833 -74.31480 36875 ft 506 kts 45°
2026-05-08 20:35 14.08271 -74.23769 36890 ft 506 kts 45°
2026-05-08 20:35 14.13228 -74.18626 36893 ft 507 kts 45°
2026-05-08 20:36 14.18198 -74.13468 36892 ft 507 kts 45°
2026-05-08 20:36 14.23163 -74.08315 36894 ft 507 kts 45°
2026-05-08 20:37 14.28134 -74.03152 36893 ft 507 kts 45°
2026-05-08 20:37 14.33087 -73.98013 36896 ft 507 kts 44°
2026-05-08 20:38 14.38058 -73.92881 36898 ft 507 kts 44°
2026-05-08 20:38 14.43034 -73.87740 36897 ft 507 kts 44°
2026-05-08 20:39 14.48017 -73.82588 36896 ft 507 kts 44°
2026-05-08 20:39 14.52967 -73.77467 36899 ft 506 kts 44°
2026-05-08 20:40 14.57966 -73.72291 36901 ft 507 kts 44°
2026-05-08 20:40 14.62946 -73.67130 36903 ft 507 kts 44°
2026-05-08 20:41 14.67884 -73.62009 36903 ft 506 kts 44°
2026-05-08 20:41 14.72880 -73.56826 36902 ft 506 kts 44°
2026-05-08 20:42 14.77816 -73.51700 36903 ft 506 kts 44°
2026-05-08 20:42 14.82797 -73.46525 36895 ft 506 kts 44°
2026-05-08 20:43 14.87755 -73.41385 36889 ft 505 kts 43°
2026-05-08 20:43 14.92875 -73.36453 36885 ft 505 kts 42°
2026-05-08 20:44 14.98034 -73.31502 36888 ft 505 kts 42°
2026-05-08 20:44 15.03178 -73.26550 36888 ft 505 kts 42°
2026-05-08 20:45 15.08771 -73.22224 36888 ft 503 kts 27°
2026-05-08 20:45 15.15315 -73.19664 36898 ft 502 kts 15°
2026-05-08 20:46 15.22064 -73.17748 36892 ft 502 kts 15°
2026-05-08 20:46 15.28832 -73.15836 36894 ft 502 kts 15°
2026-05-08 20:47 15.35549 -73.13936 36898 ft 501 kts 15°
2026-05-08 20:47 15.42273 -73.12034 36899 ft 500 kts 15°
2026-05-08 20:48 15.49002 -73.10128 36899 ft 500 kts 15°
2026-05-08 20:48 15.55732 -73.08221 36899 ft 500 kts 15°
2026-05-08 20:49 15.62475 -73.06312 36901 ft 501 kts 15°
2026-05-08 20:49 15.69206 -73.04405 36903 ft 501 kts 15°
2026-05-08 20:50 15.75921 -73.02502 36904 ft 500 kts 15°
2026-05-08 20:50 15.82674 -73.00586 36903 ft 500 kts 15°
2026-05-08 20:51 15.89379 -72.98683 36904 ft 499 kts 15°
2026-05-08 20:51 15.96107 -72.96771 36908 ft 499 kts 15°
2026-05-08 20:52 16.02826 -72.94862 36916 ft 499 kts 15°
2026-05-08 20:52 16.09523 -72.92956 36926 ft 500 kts 15°
2026-05-08 20:53 16.16245 -72.91043 36932 ft 499 kts 15°
2026-05-08 20:53 16.22989 -72.89121 36933 ft 500 kts 15°
2026-05-08 20:54 16.29678 -72.87211 36932 ft 498 kts 15°
2026-05-08 20:54 16.36371 -72.85294 36931 ft 498 kts 15°
2026-05-08 20:55 16.43078 -72.83371 36931 ft 498 kts 15°
2026-05-08 20:55 16.49763 -72.81454 36932 ft 498 kts 15°
2026-05-08 20:56 16.56454 -72.79533 36931 ft 498 kts 15°
2026-05-08 20:56 16.63146 -72.77611 36930 ft 498 kts 15°
2026-05-08 20:57 16.69817 -72.75693 36930 ft 497 kts 15°
2026-05-08 20:57 16.76479 -72.73778 36929 ft 496 kts 15°
2026-05-08 20:58 16.83168 -72.71852 36927 ft 496 kts 15°
2026-05-08 20:58 16.89850 -72.69927 36926 ft 496 kts 15°
2026-05-08 20:59 16.96494 -72.68012 36927 ft 497 kts 15°
2026-05-08 20:59 17.03160 -72.66118 36930 ft 497 kts 14°
2026-05-08 21:00 17.09888 -72.64288 36928 ft 497 kts 14°
2026-05-08 21:00 17.16628 -72.62453 36935 ft 497 kts 14°
2026-05-08 21:01 17.23297 -72.60632 36852 ft 486 kts 14°
2026-05-08 21:01 17.26549 -72.59744 36130 ft 485 kts 14°
2026-05-08 21:01 17.29856 -72.58839 34807 ft 493 kts 14°
2026-05-08 21:01 17.33204 -72.57924 33251 ft 504 kts 14°
2026-05-08 21:02 17.36609 -72.56992 32037 ft 506 kts 14°
2026-05-08 21:02 17.39948 -72.56077 31498 ft 497 kts 14°
2026-05-08 21:02 17.43269 -72.55167 31168 ft 485 kts 15°
2026-05-08 21:02 17.46543 -72.54269 30691 ft 478 kts 15°
2026-05-08 21:03 17.49727 -72.53396 30070 ft 475 kts 15°
2026-05-08 21:03 17.52939 -72.52515 29429 ft 471 kts 15°
2026-05-08 21:03 17.56090 -72.51650 28839 ft 467 kts 15°
2026-05-08 21:03 17.59266 -72.50778 28249 ft 463 kts 15°
2026-05-08 21:04 17.62371 -72.49925 27686 ft 458 kts 15°
2026-05-08 21:04 17.65435 -72.49083 27110 ft 454 kts 15°
2026-05-08 21:04 17.68456 -72.48252 26556 ft 449 kts 15°
2026-05-08 21:04 17.71470 -72.47424 25993 ft 445 kts 15°
2026-05-08 21:05 17.74460 -72.46601 25401 ft 441 kts 15°
2026-05-08 21:05 17.77409 -72.45789 24832 ft 437 kts 15°
2026-05-08 21:05 17.80362 -72.44977 24256 ft 433 kts 15°
2026-05-08 21:05 17.83253 -72.44180 23695 ft 428 kts 15°
2026-05-08 21:06 17.86151 -72.43382 23118 ft 425 kts 15°
2026-05-08 21:06 17.88970 -72.42606 22570 ft 420 kts 15°
2026-05-08 21:06 17.91786 -72.41829 22032 ft 416 kts 15°
2026-05-08 21:06 17.94580 -72.41059 21494 ft 413 kts 16°
2026-05-08 21:07 17.97386 -72.40285 20934 ft 410 kts 16°
2026-05-08 21:07 18.00131 -72.39528 20396 ft 406 kts 16°
2026-05-08 21:07 18.02823 -72.38785 19882 ft 402 kts 16°
2026-05-08 21:07 18.05559 -72.38030 19346 ft 399 kts 16°
2026-05-08 21:08 18.08170 -72.37165 18838 ft 393 kts 24°
2026-05-08 21:08 18.10598 -72.35851 18313 ft 388 kts 33°
2026-05-08 21:08 18.12731 -72.34142 17818 ft 383 kts 43°
2026-05-08 21:08 18.14528 -72.32096 17322 ft 379 kts 52°
2026-05-08 21:09 18.15961 -72.29772 16796 ft 377 kts 61°
2026-05-08 21:09 18.17065 -72.27309 16225 ft 377 kts 65°
2026-05-08 21:09 18.18131 -72.24792 15653 ft 375 kts 65°
2026-05-08 21:09 18.19184 -72.22294 15127 ft 373 kts 65°
2026-05-08 21:10 18.20229 -72.19813 14603 ft 371 kts 65°
2026-05-08 21:10 18.21270 -72.17337 14061 ft 369 kts 65°
2026-05-08 21:10 18.22296 -72.14895 13554 ft 367 kts 65°
2026-05-08 21:10 18.23333 -72.12422 12991 ft 365 kts 65°
2026-05-08 21:11 18.24348 -72.10003 12479 ft 362 kts 65°
2026-05-08 21:11 18.25354 -72.07601 11982 ft 359 kts 65°
2026-05-08 21:11 18.26359 -72.05203 11432 ft 357 kts 65°
2026-05-08 21:11 18.27357 -72.02818 10928 ft 355 kts 65°
2026-05-08 21:12 18.28347 -72.00452 10403 ft 353 kts 66°
2026-05-08 21:12 18.29324 -71.98117 9922 ft 351 kts 65°
2026-05-08 21:12 18.30309 -71.95760 9431 ft 349 kts 65°
2026-05-08 21:12 18.31277 -71.93443 8921 ft 347 kts 65°
2026-05-08 21:13 18.32224 -71.91177 8670 ft 328 kts 65°
2026-05-08 21:13 18.33101 -71.89076 8744 ft 299 kts 65°
2026-05-08 21:13 18.33988 -71.87176 8756 ft 283 kts 53°
2026-05-08 21:13 18.35368 -71.85832 8792 ft 263 kts 32°
2026-05-08 21:14 18.37090 -71.85150 8685 ft 262 kts
2026-05-08 21:14 18.38921 -71.85136 8387 ft 261 kts 355°
2026-05-08 21:14 18.40749 -71.85435 8349 ft 270 kts 350°
2026-05-08 21:14 18.42590 -71.85879 8336 ft 271 kts 348°
2026-05-08 21:15 18.44447 -71.86373 8321 ft 271 kts 347°
2026-05-08 21:15 18.46284 -71.86871 7952 ft 278 kts 347°
2026-05-08 21:15 18.48189 -71.87389 7400 ft 285 kts 347°
2026-05-08 21:15 18.50082 -71.88047 6915 ft 290 kts 332°
2026-05-08 21:16 18.51594 -71.89436 6466 ft 294 kts 306°
2026-05-08 21:16 18.52512 -71.91395 6048 ft 298 kts 291°
2026-05-08 21:16 18.53164 -71.93469 5508 ft 299 kts 288°
2026-05-08 21:16 18.53756 -71.95526 5088 ft 291 kts 288°
2026-05-08 21:17 18.54332 -71.97536 4700 ft 283 kts 288°
2026-05-08 21:17 18.54894 -71.99490 4321 ft 277 kts 288°
2026-05-08 21:17 18.55447 -72.01404 3932 ft 271 kts 288°
2026-05-08 21:17 18.55980 -72.03255 3731 ft 258 kts 288°
2026-05-08 21:18 18.56489 -72.05019 3546 ft 245 kts 288°
2026-05-08 21:18 18.56968 -72.06683 3352 ft 228 kts 289°
2026-05-08 21:18 18.57414 -72.08231 3166 ft 211 kts 289°
2026-05-08 21:18 18.57828 -72.09666 2998 ft 197 kts 289°
2026-05-08 21:19 18.58210 -72.10990 2861 ft 186 kts 289°
2026-05-08 21:19 18.58584 -72.12288 2687 ft 179 kts 289°
2026-05-08 21:19 18.58774 -72.13552 2519 ft 172 kts 271°
2026-05-08 21:19 18.58725 -72.14764 2385 ft 161 kts 270°
2026-05-08 21:20 18.58670 -72.15929 2260 ft 159 kts 269°
2026-05-08 21:20 18.58613 -72.17092 2127 ft 158 kts 269°
2026-05-08 21:20 18.58556 -72.18256 1996 ft 159 kts 269°
2026-05-08 21:20 18.58497 -72.19432 1846 ft 160 kts 269°
2026-05-08 21:21 18.58440 -72.20553 1651 ft 158 kts 269°
2026-05-08 21:21 18.58381 -72.21732 1432 ft 156 kts 269°
2026-05-08 21:21 18.58324 -72.22868 1228 ft 154 kts 270°
2026-05-08 21:21 18.58267 -72.24006 995 ft 155 kts 270°
2026-05-08 21:22 18.58219 -72.25131 785 ft 152 kts 270°
2026-05-08 21:22 18.58148 -72.26224 525 ft 146 kts 269°
2026-05-08 21:22 18.58087 -72.27279 328 ft 146 kts 271°
2026-05-08 21:22 18.58053 -72.28341 208 ft 138 kts 268°
2026-05-08 21:23 18.58017 -72.29039 192 ft 46 kts 267°
2026-05-08 21:23 18.58007 -72.29222 189 ft 21 kts 266°
2026-05-08 21:23 18.58001 -72.29373 187 ft 20 kts 268°
2026-05-08 21:23 18.57931 -72.29466 187 ft 17 kts 178°
2026-05-08 21:24 18.57824 -72.29469 187 ft 14 kts 175°
2026-05-08 21:24 18.57730 -72.29459 188 ft 12 kts 161°
2026-05-08 21:24 18.57652 -72.29437 189 ft 11 kts 174°
2026-05-08 21:24 18.57638 -72.29436 189 ft 0 kts 177°